Location: Caracas
(10.5033°N, 66.8422°W)
Time: 21:05:56
(UTC-04:00)

N. Korean satellite - Pass Details

Date: 17 November 2017
Orbit: 460 x 514 km, 97.2° (Epoch: 20 November)

Event Time Altitude Azimuth Distance (km) Brightness Sun altitude
Rises 18:27:32 0° 156° (SSE) 2,471 10.1 -6.9°
Reaches altitude 10° 18:29:39 10° 148° (SSE) 1,597 9.1 -7.4°
Maximum altitude 18:32:52 39° 78° (ENE) 698 6.9 -8.2°
Drops below altitude 10° 18:36:06 10° 8° (N) 1,605 8.9 -8.9°
Sets 18:38:13 0° 0° (N) 2,484 10.0 -9.4°
